contact:dominique.lefevre@mio.osupytheas.fr, maurice.libes@osupytheas.fr, didier.mallarino@osupytheas.fr
Project:EMSO http://www.emso-fr.org/EMSO-France
Depth: 2436.0 m
Title:EMSO Ligure Ouest : Data MII capteur AQUADOPP
Date,Latitude,Longitude,X_East,Y_North,Z_Up,Amplitude_X,Amplitude_Y,Amplitude_Z,Batterie,SoundSpeed,Heading,Pitch,Roll,Pressure,TIS,Speed,Direction
, degrees North, degrees East, m.s-1, m.s-1,m.s-1, 1, 1, 1, Volt, m.s-1, degree, degree, degree, dbar, degree_C, m.s-1, degree
2020-07-28T00:04:02,42.805,6.029,0.007,-0.02,-0.037,103.0,104.0,101.0,13.4,1505.3,326.3,-0.7,1.8,2470.495,13.31,0.021,160.7
2020-07-28T00:07:02,42.805,6.029,-0.041,-0.021,-0.064,103.0,105.0,101.0,13.4,1505.3,323.7,-0.7,1.8,2470.495,13.32,0.046,242.9
2020-07-28T00:10:03,42.805,6.029,-0.036,-0.024,-0.087,103.0,105.0,101.0,13.4,1505.3,324.5,-0.7,1.8,2470.49,13.32,0.043,236.3
2020-07-28T00:13:03,42.805,6.029,-0.013,-0.008,-0.026,102.0,107.0,100.0,13.4,1505.3,326.9,-0.7,1.8,2470.483,13.33,0.015,238.4
2020-07-28T00:16:03,42.805,6.029,-0.019,-0.016,-0.063,103.0,106.0,102.0,13.3,1505.3,323.0,-0.7,1.8,2470.437,13.33,0.024,229.9
2020-07-28T00:19:03,42.805,6.029,0.0,-0.028,0.005,102.0,108.0,101.0,13.4,1505.3,326.9,-0.7,1.8,2470.48,13.33,0.028,180.0
2020-07-28T00:22:02,42.805,6.029,0.004,-0.02,-0.002,104.0,107.0,101.0,13.4,1505.3,325.7,-0.7,1.8,2470.497,13.33,0.02,168.7
2020-07-28T00:25:02,42.805,6.029,0.009,-0.015,-0.026,102.0,107.0,100.0,13.4,1505.3,326.5,-0.7,1.8,2470.486,13.33,0.017,149.0
2020-07-28T00:28:03,42.805,6.029,0.008,-0.016,0.001,104.0,107.0,102.0,13.4,1505.3,324.8,-0.7,1.8,2470.465,13.33,0.017,153.4
2020-07-28T00:31:03,42.805,6.029,0.016,-0.011,-0.015,103.0,107.0,102.0,13.4,1505.3,323.1,-0.7,1.8,2470.482,13.33,0.019,124.5
2020-07-28T00:34:03,42.805,6.029,0.012,0.007,-0.008,104.0,109.0,101.0,13.3,1505.3,324.6,-0.7,1.8,2470.509,13.33,0.013,59.7
2020-07-28T00:37:02,42.805,6.029,0.009,-0.019,0.004,104.0,108.0,101.0,13.3,1505.3,324.8,-0.7,1.8,2470.422,13.33,0.021,154.7
2020-07-28T00:40:03,42.805,6.029,-0.003,-0.008,-0.044,103.0,107.0,101.0,13.4,1505.3,325.4,-0.7,1.8,2470.491,13.33,0.008,200.6
2020-07-28T00:43:03,42.805,6.029,0.018,-0.031,-0.028,104.0,107.0,101.0,13.4,1505.3,327.8,-0.7,1.8,2470.442,13.33,0.035,149.9
2020-07-28T00:46:03,42.805,6.029,0.039,-0.029,-0.001,104.0,105.0,101.0,13.3,1505.3,327.0,-0.7,1.8,2470.471,13.33,0.048,126.6
2020-07-28T00:49:02,42.805,6.029,0.0,-0.005,-0.019,102.0,105.0,101.0,13.4,1505.3,326.9,-0.7,1.8,2470.482,13.33,0.005,180.0
2020-07-28T00:52:02,42.805,6.029,-0.013,-0.005,-0.023,103.0,106.0,100.0,13.4,1505.3,326.8,-0.7,1.8,2470.459,13.33,0.013,249.0
2020-07-28T00:58:02,42.805,6.029,0.0,0.001,-0.016,102.0,106.0,100.0,13.3,1505.3,323.6,-0.7,1.8,2470.474,13.31,0.001,0.0
2020-07-28T01:04:02,42.805,6.029,0.022,0.004,-0.019,104.0,106.0,103.0,13.3,1505.2,323.6,-0.7,1.8,2470.528,13.3,0.022,79.7
2020-07-28T01:07:03,42.805,6.029,0.018,-0.017,-0.019,103.0,105.0,100.0,13.3,1505.3,324.2,-0.7,1.8,2470.518,13.31,0.024,133.4
2020-07-28T01:10:03,42.805,6.029,0.019,0.0,-0.006,102.0,104.0,101.0,13.4,1505.3,326.5,-0.7,1.9,2470.496,13.32,0.019,90.0
2020-07-28T01:13:02,42.805,6.029,0.001,-0.014,-0.026,103.0,104.0,101.0,13.4,1505.3,324.3,-0.7,1.8,2470.498,13.32,0.014,175.9
2020-07-28T01:16:03,42.805,6.029,0.035,-0.011,-0.053,103.0,105.0,100.0,13.3,1505.3,324.8,-0.7,1.9,2470.479,13.32,0.036,107.4
2020-07-28T01:19:03,42.805,6.029,-0.003,-0.01,0.001,103.0,104.0,102.0,13.4,1505.3,323.6,-0.7,1.8,2470.482,13.33,0.01,196.7
2020-07-28T01:22:02,42.805,6.029,0.02,0.0,-0.025,103.0,104.0,101.0,13.4,1505.3,326.5,-0.7,1.9,2470.463,13.33,0.02,90.0
2020-07-28T01:25:03,42.805,6.029,0.01,0.007,-0.018,103.0,105.0,101.0,13.3,1505.3,324.8,-0.7,1.8,2470.487,13.33,0.012,55.0
2020-07-28T01:28:03,42.805,6.029,-0.017,-0.021,-0.055,104.0,106.0,101.0,13.4,1505.3,324.8,-0.7,1.8,2470.518,13.33,0.027,219.0
2020-07-28T01:31:03,42.805,6.029,0.051,-0.004,0.031,103.0,106.0,101.0,13.4,1505.3,325.1,-0.7,1.9,2470.441,13.33,0.051,94.5
2020-07-28T01:34:03,42.805,6.029,-0.011,-0.017,-0.057,103.0,105.0,100.0,13.4,1505.3,327.1,-0.7,1.8,2470.443,13.33,0.02,212.9
2020-07-28T01:37:02,42.805,6.029,0.04,-0.025,0.0,103.0,106.0,102.0,13.4,1505.3,325.4,-0.7,1.8,2470.438,13.33,0.047,122.0
2020-07-28T01:40:02,42.805,6.029,0.026,0.001,0.022,102.0,106.0,102.0,13.4,1505.3,326.3,-0.7,1.8,2470.43,13.33,0.026,87.8
2020-07-28T01:43:03,42.805,6.029,0.037,-0.024,-0.001,104.0,104.0,102.0,13.4,1505.3,325.4,-0.7,1.8,2470.438,13.33,0.044,123.0
2020-07-28T01:46:03,42.805,6.029,0.001,0.001,-0.003,103.0,105.0,101.0,13.3,1505.3,325.7,-0.7,1.8,2470.457,13.33,0.001,45.0
2020-07-28T01:49:03,42.805,6.029,0.025,-0.011,-0.004,102.0,106.0,100.0,13.3,1505.3,324.6,-0.7,1.8,2470.432,13.33,0.027,113.7
2020-07-28T01:52:02,42.805,6.029,0.02,-0.016,-0.024,103.0,104.0,102.0,13.3,1505.3,326.8,-0.7,1.9,2470.415,13.33,0.025,128.7
2020-07-28T01:55:02,42.805,6.029,0.044,-0.025,-0.015,104.0,106.0,100.0,13.4,1505.3,325.3,-0.7,1.8,2470.493,13.33,0.05,119.6
2020-07-28T01:58:03,42.805,6.029,0.015,-0.033,-0.033,102.0,107.0,100.0,13.4,1505.3,325.6,-0.7,1.8,2470.461,13.33,0.036,155.6
2020-07-28T02:04:02,42.805,6.029,0.05,-0.019,0.025,102.0,106.0,100.0,13.3,1505.3,324.2,-0.7,1.8,2470.471,13.31,0.053,110.8
2020-07-28T02:07:02,42.805,6.029,-0.001,-0.027,-0.056,102.0,105.0,101.0,13.3,1505.3,323.4,-0.7,1.8,2470.458,13.31,0.027,182.1
2020-07-28T02:10:03,42.805,6.029,0.032,-0.013,-0.001,102.0,104.0,101.0,13.3,1505.3,325.7,-0.7,1.9,2470.469,13.32,0.034,112.1
2020-07-28T02:13:03,42.805,6.029,0.044,-0.028,0.001,101.0,106.0,100.0,13.4,1505.3,328.6,-0.7,1.8,2470.474,13.32,0.052,122.5
2020-07-28T02:16:03,42.805,6.029,-0.012,-0.023,-0.059,104.0,106.0,101.0,13.4,1505.3,323.8,-0.7,1.8,2470.419,13.32,0.025,207.6
2020-07-28T02:19:03,42.805,6.029,-0.008,-0.025,-0.052,102.0,107.0,101.0,13.4,1505.3,324.4,-0.7,1.8,2470.461,13.32,0.026,197.7
2020-07-28T02:22:02,42.805,6.029,0.001,0.001,-0.018,101.0,107.0,101.0,13.4,1505.3,324.4,-0.7,1.8,2470.45,13.32,0.001,45.0
2020-07-28T02:25:03,42.805,6.029,0.024,-0.012,-0.005,102.0,106.0,101.0,13.4,1505.3,324.5,-0.7,1.8,2470.464,13.33,0.026,116.6
2020-07-28T02:28:03,42.805,6.029,-0.004,-0.012,-0.035,104.0,106.0,99.0,13.4,1505.3,324.0,-0.7,1.8,2470.406,13.33,0.012,198.4
2020-07-28T02:31:03,42.805,6.029,0.003,-0.037,-0.051,102.0,106.0,100.0,13.3,1505.3,325.9,-0.7,1.9,2470.437,13.33,0.037,175.4
2020-07-28T02:34:02,42.805,6.029,0.032,-0.024,-0.013,102.0,106.0,101.0,13.4,1505.3,328.7,-0.7,1.8,2470.41,13.32,0.04,126.9
2020-07-28T02:37:02,42.805,6.029,0.0,-0.02,-0.047,102.0,107.0,101.0,13.4,1505.3,323.8,-0.7,1.8,2470.443,13.33,0.02,180.0
2020-07-28T02:40:03,42.805,6.029,0.013,-0.026,-0.026,103.0,105.0,99.0,13.4,1505.3,326.0,-0.7,1.8,2470.444,13.33,0.029,153.4
2020-07-28T02:43:03,42.805,6.029,0.003,-0.006,-0.021,103.0,106.0,100.0,13.4,1505.3,325.1,-0.7,1.8,2470.449,13.33,0.006,153.4
2020-07-28T02:46:03,42.805,6.029,0.02,-0.027,-0.007,103.0,106.0,101.0,13.3,1505.3,326.6,-0.7,1.8,2470.435,13.33,0.033,143.5
2020-07-28T02:49:02,42.805,6.029,0.027,-0.034,-0.022,103.0,104.0,101.0,13.4,1505.3,324.6,-0.7,1.8,2470.378,13.33,0.043,141.5
2020-07-28T02:52:02,42.805,6.029,0.011,-0.019,-0.021,103.0,104.0,101.0,13.4,1505.3,327.7,-0.7,1.8,2470.426,13.32,0.021,149.9
2020-07-28T02:55:03,42.805,6.029,0.028,-0.013,-0.028,104.0,104.0,100.0,13.4,1505.3,324.0,-0.7,1.9,2470.401,13.32,0.03,114.9
2020-07-28T02:58:03,42.805,6.029,0.021,-0.03,0.002,105.0,105.0,101.0,13.3,1505.3,323.1,-0.7,1.8,2470.397,13.33,0.036,145.0
2020-07-28T03:04:02,42.805,6.029,-0.004,-0.02,-0.008,103.0,104.0,100.0,13.3,1505.2,325.8,-0.7,1.8,2470.416,13.3,0.02,191.3
2020-07-28T03:07:02,42.805,6.029,0.02,-0.022,-0.021,101.0,104.0,101.0,13.3,1505.3,326.2,-0.7,1.8,2470.442,13.31,0.029,137.7
2020-07-28T03:10:03,42.805,6.029,0.021,-0.027,-0.02,102.0,105.0,101.0,13.4,1505.3,327.3,-0.7,1.8,2470.41,13.32,0.034,142.1
2020-07-28T03:13:02,42.805,6.029,0.018,-0.018,-0.009,103.0,105.0,100.0,13.4,1505.3,324.6,-0.7,1.8,2470.439,13.32,0.025,135.0
2020-07-28T03:16:03,42.805,6.029,0.012,-0.029,-0.035,103.0,104.0,102.0,13.3,1505.3,325.9,-0.7,1.8,2470.423,13.32,0.031,157.5
2020-07-28T03:19:03,42.805,6.029,0.031,-0.021,-0.021,103.0,104.0,101.0,13.4,1505.3,327.0,-0.7,1.9,2470.437,13.32,0.037,124.1
2020-07-28T03:22:02,42.805,6.029,0.0,0.0,-0.036,103.0,104.0,100.0,13.3,1505.3,323.8,-0.7,1.8,2470.411,13.32,0.0,0.0
2020-07-28T03:25:03,42.805,6.029,0.021,-0.028,-0.022,102.0,104.0,100.0,13.3,1505.3,326.3,-0.7,1.8,2470.407,13.32,0.035,143.1
2020-07-28T03:28:03,42.805,6.029,0.01,-0.03,-0.045,103.0,105.0,100.0,13.4,1505.3,327.9,-0.7,1.8,2470.43,13.32,0.031,161.6
2020-07-28T03:31:03,42.805,6.029,0.007,-0.023,-0.047,101.0,105.0,101.0,13.3,1505.3,325.4,-0.7,1.9,2470.433,13.32,0.024,163.1
2020-07-28T03:34:03,42.805,6.029,0.033,-0.029,-0.023,102.0,104.0,100.0,13.4,1505.3,328.0,-0.7,1.9,2470.438,13.32,0.043,131.3
2020-07-28T03:37:02,42.805,6.029,0.02,-0.026,-0.017,103.0,105.0,101.0,13.3,1505.3,326.4,-0.7,1.9,2470.409,13.32,0.032,142.4
2020-07-28T03:40:03,42.805,6.029,0.025,-0.024,0.018,103.0,104.0,100.0,13.4,1505.3,326.3,-0.7,1.8,2470.421,13.32,0.034,133.8
2020-07-28T03:43:03,42.805,6.029,0.016,-0.014,-0.027,104.0,104.0,101.0,13.3,1505.3,326.0,-0.7,1.9,2470.379,13.32,0.021,131.2
2020-07-28T03:46:03,42.805,6.029,0.029,-0.014,0.022,104.0,105.0,100.0,13.4,1505.3,324.5,-0.7,1.8,2470.434,13.32,0.032,115.8
2020-07-28T03:49:02,42.805,6.029,0.016,-0.019,0.016,103.0,104.0,100.0,13.3,1505.3,325.8,-0.7,1.8,2470.393,13.32,0.024,139.9
2020-07-28T03:52:02,42.805,6.029,0.034,-0.031,-0.011,102.0,104.0,101.0,13.4,1505.3,327.0,-0.7,1.8,2470.4,13.32,0.046,132.4
2020-07-28T03:55:02,42.805,6.029,0.035,-0.015,-0.011,103.0,104.0,101.0,13.4,1505.3,325.0,-0.7,1.8,2470.436,13.32,0.038,113.2
2020-07-28T03:58:03,42.805,6.029,0.009,-0.023,0.005,103.0,104.0,101.0,13.4,1505.3,325.0,-0.7,1.9,2470.358,13.32,0.024,158.6
2020-07-28T04:04:02,42.805,6.029,0.014,-0.035,-0.025,103.0,104.0,100.0,13.3,1505.2,324.4,-0.7,1.8,2470.436,13.3,0.037,158.2
2020-07-28T04:07:02,42.805,6.029,0.029,-0.027,-0.056,100.0,105.0,101.0,13.4,1505.3,328.2,-0.7,1.8,2470.451,13.31,0.039,133.0
2020-07-28T04:10:03,42.805,6.029,0.012,-0.01,-0.027,103.0,105.0,100.0,13.4,1505.3,324.7,-0.7,1.8,2470.404,13.32,0.015,129.8
2020-07-28T04:13:03,42.805,6.029,0.007,-0.031,-0.019,102.0,105.0,101.0,13.4,1505.3,326.1,-0.7,1.9,2470.432,13.32,0.031,167.3
2020-07-28T04:16:03,42.805,6.029,-0.008,-0.04,-0.069,103.0,105.0,101.0,13.4,1505.3,324.8,-0.7,1.8,2470.378,13.32,0.04,191.3
2020-07-28T04:19:03,42.805,6.029,0.006,-0.027,-0.011,104.0,105.0,100.0,13.3,1505.3,324.7,-0.7,1.8,2470.447,13.32,0.027,167.5
2020-07-28T04:22:02,42.805,6.029,0.011,-0.015,-0.017,104.0,105.0,100.0,13.4,1505.3,323.4,-0.7,1.8,2470.389,13.32,0.018,143.7
2020-07-28T04:25:03,42.805,6.029,0.027,-0.034,-0.013,103.0,104.0,100.0,13.4,1505.3,326.8,-0.7,1.8,2470.391,13.32,0.043,141.5
2020-07-28T04:28:02,42.805,6.029,0.037,-0.041,-0.01,103.0,104.0,101.0,13.4,1505.3,326.3,-0.7,1.9,2470.414,13.32,0.055,137.9
2020-07-28T04:31:03,42.805,6.029,0.046,-0.031,0.012,104.0,104.0,100.0,13.4,1505.3,328.2,-0.7,1.8,2470.352,13.32,0.055,124.0
2020-07-28T04:34:03,42.805,6.029,0.027,-0.037,-0.022,104.0,104.0,101.0,13.3,1505.3,323.8,-0.7,1.9,2470.351,13.32,0.045,143.9
2020-07-28T04:37:02,42.805,6.029,0.019,-0.023,-0.009,104.0,105.0,100.0,13.4,1505.3,323.7,-0.7,1.8,2470.382,13.32,0.029,140.4
2020-07-28T04:40:03,42.805,6.029,0.017,-0.024,-0.02,103.0,105.0,101.0,13.4,1505.3,326.4,-0.7,1.8,2470.342,13.32,0.029,144.7
2020-07-28T04:43:03,42.805,6.029,0.052,-0.033,-0.013,104.0,104.0,101.0,13.4,1505.3,323.7,-0.7,1.8,2470.377,13.32,0.061,122.4
2020-07-28T04:46:03,42.805,6.029,0.012,-0.019,-0.029,104.0,105.0,100.0,13.4,1505.3,324.9,-0.7,1.8,2470.377,13.32,0.022,147.7
2020-07-28T04:49:03,42.805,6.029,0.021,-0.026,-0.008,103.0,104.0,100.0,13.4,1505.3,324.7,-0.7,1.8,2470.373,13.32,0.033,141.1
2020-07-28T04:52:02,42.805,6.029,0.017,-0.026,-0.032,102.0,104.0,100.0,13.4,1505.3,325.1,-0.7,1.8,2470.37,13.32,0.031,146.8
2020-07-28T04:55:03,42.805,6.029,0.031,-0.025,-0.033,102.0,104.0,100.0,13.4,1505.3,324.2,-0.7,1.8,2470.383,13.32,0.039,128.9
2020-07-28T04:58:03,42.805,6.029,0.033,-0.047,-0.012,102.0,104.0,100.0,13.4,1505.3,326.4,-0.7,1.8,2470.425,13.32,0.057,144.9
2020-07-28T05:04:02,42.805,6.029,0.035,-0.04,-0.005,103.0,105.0,101.0,13.4,1505.2,325.7,-0.7,1.8,2470.424,13.3,0.053,138.8
2020-07-28T05:07:02,42.805,6.029,0.031,-0.032,0.005,103.0,104.0,100.0,13.4,1505.3,325.1,-0.7,1.8,2470.373,13.31,0.044,135.9
2020-07-28T05:10:03,42.805,6.029,0.054,-0.03,0.003,103.0,105.0,100.0,13.4,1505.3,324.0,-0.7,1.8,2470.366,13.31,0.061,119.1
2020-07-28T05:13:03,42.805,6.029,0.043,-0.041,-0.008,104.0,104.0,101.0,13.4,1505.3,325.2,-0.7,1.8,2470.326,13.32,0.059,133.6
2020-07-28T05:16:03,42.805,6.029,0.008,-0.045,-0.031,102.0,103.0,100.0,13.3,1505.3,327.6,-0.7,1.9,2470.364,13.32,0.045,169.9
2020-07-28T05:19:03,42.805,6.029,0.039,-0.015,0.003,103.0,104.0,102.0,13.4,1505.3,327.0,-0.7,1.8,2470.392,13.32,0.041,111.0
2020-07-28T05:22:02,42.805,6.029,0.01,-0.039,-0.033,104.0,104.0,100.0,13.4,1505.3,327.9,-0.7,1.8,2470.391,13.32,0.04,165.6
2020-07-28T05:25:03,42.805,6.029,0.024,-0.039,-0.015,102.0,104.0,101.0,13.4,1505.3,325.7,-0.7,1.8,2470.338,13.32,0.045,148.4
2020-07-28T05:28:03,42.805,6.029,0.026,-0.029,-0.003,104.0,104.0,100.0,13.3,1505.3,328.1,-0.7,1.8,2470.343,13.32,0.038,138.1
2020-07-28T05:31:03,42.805,6.029,0.044,-0.038,-0.014,102.0,102.0,101.0,13.4,1505.3,326.6,-0.7,1.8,2470.327,13.32,0.058,130.8
2020-07-28T05:34:03,42.805,6.029,0.017,-0.039,-0.017,103.0,105.0,100.0,13.3,1505.3,324.9,-0.7,1.8,2470.348,13.32,0.042,156.5
2020-07-28T05:37:03,42.805,6.029,0.015,-0.033,-0.024,103.0,104.0,100.0,13.4,1505.3,323.4,-0.7,1.9,2470.397,13.32,0.036,155.6
2020-07-28T05:40:03,42.805,6.029,0.036,-0.035,-0.007,102.0,104.0,101.0,13.4,1505.3,325.0,-0.7,1.8,2470.354,13.32,0.05,134.2
2020-07-28T05:43:03,42.805,6.029,0.023,-0.032,-0.008,103.0,103.0,100.0,13.4,1505.3,325.7,-0.7,1.8,2470.357,13.32,0.039,144.3
2020-07-28T05:46:03,42.805,6.029,0.017,-0.044,-0.025,102.0,103.0,101.0,13.3,1505.3,326.4,-0.7,1.8,2470.352,13.32,0.047,158.9
2020-07-28T05:49:03,42.805,6.029,0.047,-0.038,0.016,103.0,104.0,100.0,13.4,1505.3,324.9,-0.7,1.8,2470.342,13.32,0.06,129.0
2020-07-28T05:52:02,42.805,6.029,0.037,-0.033,-0.001,103.0,105.0,100.0,13.4,1505.3,327.7,-0.7,1.8,2470.363,13.32,0.049,131.7
2020-07-28T05:55:03,42.805,6.029,0.023,-0.017,-0.025,103.0,104.0,100.0,13.3,1505.3,326.7,-0.7,1.9,2470.346,13.32,0.028,126.5
2020-07-28T05:58:03,42.805,6.029,0.021,-0.035,-0.022,102.0,104.0,100.0,13.3,1505.3,325.6,-0.7,1.8,2470.342,13.32,0.04,149.0
2020-07-28T06:04:02,42.805,6.029,0.021,-0.026,0.001,103.0,104.0,100.0,13.3,1505.2,327.5,-0.7,1.8,2470.367,13.3,0.033,141.1
2020-07-28T06:07:02,42.805,6.029,0.024,-0.038,-0.03,102.0,104.0,99.0,13.4,1505.3,324.7,-0.7,1.8,2470.377,13.31,0.044,147.7
2020-07-28T06:10:02,42.805,6.029,0.025,-0.027,-0.018,101.0,104.0,101.0,13.4,1505.3,326.6,-0.7,1.8,2470.329,13.31,0.036,137.2
2020-07-28T06:13:03,42.805,6.029,0.042,-0.032,-0.007,103.0,104.0,100.0,13.4,1505.3,324.8,-0.7,1.8,2470.363,13.32,0.052,127.3
2020-07-28T06:16:03,42.805,6.029,0.012,-0.041,-0.032,103.0,104.0,101.0,13.3,1505.3,327.7,-0.7,1.8,2470.362,13.32,0.042,163.7
2020-07-28T06:19:03,42.805,6.029,0.035,-0.043,-0.018,103.0,104.0,100.0,13.4,1505.3,326.1,-0.7,1.8,2470.337,13.32,0.055,140.9
2020-07-28T06:22:02,42.805,6.029,-0.003,-0.021,-0.033,103.0,103.0,101.0,13.3,1505.3,324.9,-0.7,1.8,2470.357,13.32,0.021,188.1
2020-07-28T06:25:03,42.805,6.029,0.026,-0.032,-0.002,104.0,102.0,100.0,13.4,1505.3,326.3,-0.7,1.8,2470.309,13.32,0.041,140.9
2020-07-28T06:28:03,42.805,6.029,0.02,-0.049,0.002,104.0,104.0,101.0,13.3,1505.3,324.8,-0.7,1.8,2470.312,13.32,0.052,157.8
2020-07-28T06:31:03,42.805,6.029,0.021,-0.03,-0.013,103.0,105.0,100.0,13.4,1505.3,327.6,-0.7,1.8,2470.34,13.32,0.036,145.0
2020-07-28T06:34:03,42.805,6.029,0.043,-0.037,0.014,104.0,104.0,101.0,13.3,1505.3,326.3,-0.7,1.8,2470.311,13.32,0.056,130.7
2020-07-28T06:37:02,42.805,6.029,0.04,-0.05,-0.02,105.0,103.0,100.0,13.4,1505.3,324.3,-0.7,1.9,2470.285,13.32,0.064,141.3
2020-07-28T06:40:03,42.805,6.029,0.042,-0.057,-0.017,103.0,103.0,101.0,13.4,1505.3,323.2,-0.7,1.8,2470.343,13.32,0.07,143.6
2020-07-28T06:43:03,42.805,6.029,0.018,-0.021,-0.005,103.0,104.0,99.0,13.3,1505.3,324.3,-0.7,1.8,2470.337,13.32,0.027,139.4
2020-07-28T06:46:03,42.805,6.029,0.004,-0.031,-0.003,102.0,104.0,101.0,13.4,1505.3,326.0,-0.7,1.8,2470.32,13.32,0.031,172.7
2020-07-28T06:49:02,42.805,6.029,0.03,-0.012,0.008,103.0,104.0,100.0,13.3,1505.3,324.7,-0.7,1.9,2470.341,13.32,0.032,111.8
2020-07-28T06:52:02,42.805,6.029,0.032,-0.04,-0.001,103.0,103.0,101.0,13.4,1505.3,324.4,-0.7,1.8,2470.316,13.32,0.051,141.3
2020-07-28T06:55:03,42.805,6.029,0.021,-0.048,-0.011,102.0,104.0,101.0,13.4,1505.3,326.9,-0.7,1.8,2470.316,13.32,0.052,156.4
2020-07-28T06:58:03,42.805,6.029,0.029,-0.028,-0.014,103.0,105.0,100.0,13.4,1505.3,324.2,-0.7,1.8,2470.341,13.32,0.04,134.0
2020-07-28T07:04:02,42.805,6.029,-0.006,-0.043,-0.034,103.0,103.0,100.0,13.4,1505.2,325.8,-0.7,1.8,2470.37,13.3,0.043,187.9
2020-07-28T07:07:02,42.805,6.029,0.011,-0.024,-0.022,103.0,104.0,101.0,13.4,1505.3,326.7,-0.7,1.8,2470.34,13.31,0.026,155.4
2020-07-28T07:10:03,42.805,6.029,0.001,-0.062,-0.025,101.0,104.0,100.0,13.3,1505.3,323.5,-0.7,1.8,2470.312,13.31,0.062,179.1
2020-07-28T07:13:03,42.805,6.029,0.011,-0.033,-0.012,103.0,104.0,101.0,13.4,1505.3,326.9,-0.7,1.8,2470.336,13.32,0.034,161.6
2020-07-28T07:16:03,42.805,6.029,0.015,-0.039,-0.002,102.0,105.0,101.0,13.3,1505.3,326.3,-0.7,1.8,2470.346,13.32,0.041,159.0
2020-07-28T07:19:03,42.805,6.029,0.03,-0.043,-0.026,104.0,104.0,100.0,13.3,1505.3,325.9,-0.7,1.8,2470.367,13.32,0.052,145.1
2020-07-28T07:22:02,42.805,6.029,0.003,-0.037,-0.04,104.0,103.0,100.0,13.4,1505.3,324.6,-0.7,1.8,2470.327,13.32,0.037,175.4
2020-07-28T07:25:03,42.805,6.029,0.0,-0.028,-0.021,102.0,104.0,100.0,13.3,1505.3,324.8,-0.7,1.8,2470.309,13.32,0.028,180.0
2020-07-28T07:28:03,42.805,6.029,0.016,-0.031,-0.052,104.0,103.0,100.0,13.3,1505.3,327.7,-0.7,1.8,2470.308,13.32,0.034,152.7
2020-07-28T07:31:03,42.805,6.029,0.014,-0.035,-0.049,103.0,103.0,100.0,13.4,1505.3,324.8,-0.7,1.9,2470.304,13.32,0.037,158.2
2020-07-28T07:34:03,42.805,6.029,0.026,-0.041,-0.013,102.0,104.0,100.0,13.3,1505.3,324.2,-0.7,1.9,2470.322,13.32,0.048,147.6
2020-07-28T07:37:03,42.805,6.029,0.024,-0.046,-0.032,102.0,104.0,100.0,13.4,1505.3,324.8,-0.7,1.8,2470.308,13.32,0.051,152.4
2020-07-28T07:40:03,42.805,6.029,0.009,-0.037,-0.044,103.0,103.0,99.0,13.3,1505.3,324.0,-0.7,1.9,2470.266,13.32,0.038,166.3
2020-07-28T07:43:03,42.805,6.029,0.031,-0.039,-0.026,102.0,104.0,101.0,13.4,1505.3,324.1,-0.7,1.8,2470.305,13.32,0.049,141.5
2020-07-28T07:46:03,42.805,6.029,0.037,-0.039,-0.032,104.0,104.0,99.0,13.4,1505.3,327.6,-0.7,1.8,2470.311,13.32,0.053,136.5
2020-07-28T07:49:03,42.805,6.029,0.019,-0.029,-0.002,103.0,103.0,101.0,13.3,1505.3,325.1,-0.7,1.8,2470.308,13.32,0.034,146.8
2020-07-28T07:55:02,42.805,6.029,-0.005,-0.039,-0.046,103.0,103.0,99.0,13.4,1505.2,327.0,-0.7,1.8,2470.34,13.3,0.039,187.3
2020-07-28T07:58:03,42.805,6.029,0.018,-0.029,-0.022,103.0,104.0,101.0,13.4,1505.3,327.3,-0.7,1.8,2470.338,13.31,0.034,148.2
2020-07-28T08:04:02,42.805,6.029,0.029,-0.02,0.008,103.0,105.0,101.0,13.3,1505.2,324.3,-0.7,1.8,2470.363,13.3,0.035,124.6
2020-07-28T08:07:03,42.805,6.029,0.009,-0.048,-0.037,103.0,103.0,101.0,13.4,1505.3,325.1,-0.7,1.8,2470.302,13.31,0.048,169.4
2020-07-28T08:10:03,42.805,6.029,0.002,-0.053,-0.028,102.0,105.0,100.0,13.4,1505.3,327.8,-0.7,1.8,2470.336,13.31,0.053,177.8
2020-07-28T08:13:02,42.805,6.029,0.015,-0.053,-0.026,102.0,104.0,100.0,13.4,1505.3,326.8,-0.7,1.9,2470.34,13.32,0.055,164.2
2020-07-28T08:16:03,42.805,6.029,0.008,-0.039,-0.059,103.0,103.0,100.0,13.4,1505.3,325.3,-0.7,1.8,2470.303,13.32,0.039,168.4
2020-07-28T08:19:03,42.805,6.029,0.017,-0.024,-0.006,102.0,104.0,101.0,13.3,1505.3,323.7,-0.7,1.9,2470.299,13.32,0.029,144.7
2020-07-28T08:22:02,42.805,6.029,0.005,-0.057,-0.034,102.0,104.0,100.0,13.4,1505.3,325.9,-0.7,1.8,2470.329,13.32,0.057,175.0
2020-07-28T08:25:03,42.805,6.029,0.004,-0.042,-0.008,103.0,103.0,100.0,13.4,1505.3,324.1,-0.7,1.8,2470.316,13.32,0.042,174.6
2020-07-28T08:28:03,42.805,6.029,0.038,-0.041,-0.008,102.0,104.0,101.0,13.4,1505.3,326.0,-0.7,1.8,2470.313,13.32,0.055,137.2
2020-07-28T08:31:03,42.805,6.029,0.003,-0.021,-0.036,102.0,103.0,100.0,13.4,1505.3,326.8,-0.7,1.9,2470.28,13.32,0.021,171.9
2020-07-28T08:34:03,42.805,6.029,0.022,-0.042,-0.003,103.0,104.0,100.0,13.4,1505.3,324.1,-0.7,1.8,2470.306,13.32,0.047,152.4
2020-07-28T08:37:03,42.805,6.029,0.018,-0.014,-0.03,103.0,104.0,101.0,13.4,1505.3,325.7,-0.7,1.8,2470.32,13.32,0.022,127.9
2020-07-28T08:40:03,42.805,6.029,0.012,-0.046,-0.029,103.0,104.0,101.0,13.4,1505.3,324.5,-0.7,1.8,2470.314,13.32,0.047,165.4
2020-07-28T08:43:03,42.805,6.029,0.027,-0.047,-0.021,103.0,103.0,101.0,13.4,1505.3,323.4,-0.7,1.8,2470.291,13.32,0.054,150.1
2020-07-28T08:46:03,42.805,6.029,0.03,-0.037,-0.002,103.0,104.0,100.0,13.4,1505.3,324.7,-0.7,1.8,2470.304,13.32,0.047,141.0
2020-07-28T08:49:03,42.805,6.029,0.004,-0.042,-0.057,102.0,103.0,101.0,13.3,1505.3,325.6,-0.7,1.9,2470.255,13.32,0.042,174.6
2020-07-28T08:52:03,42.805,6.029,-0.011,-0.025,-0.025,103.0,104.0,100.0,13.3,1505.3,325.6,-0.7,1.8,2470.271,13.32,0.027,203.7
2020-07-28T08:55:03,42.805,6.029,0.026,-0.042,-0.026,103.0,105.0,100.0,13.4,1505.3,326.8,-0.7,1.8,2470.321,13.32,0.049,148.2
2020-07-28T08:58:03,42.805,6.029,0.015,-0.019,0.008,103.0,105.0,102.0,13.4,1505.3,324.6,-0.7,1.8,2470.308,13.32,0.024,141.7
2020-07-28T09:04:02,42.805,6.029,0.027,-0.041,-0.018,104.0,103.0,101.0,13.3,1505.2,323.3,-0.7,1.8,2470.351,13.3,0.049,146.6
2020-07-28T09:07:02,42.805,6.029,0.006,-0.034,-0.011,103.0,104.0,100.0,13.3,1505.3,325.3,-0.7,1.9,2470.326,13.31,0.034,170.0
2020-07-28T09:10:03,42.805,6.029,-0.001,-0.031,-0.008,103.0,103.0,100.0,13.3,1505.3,323.8,-0.7,1.8,2470.358,13.31,0.031,181.8
2020-07-28T09:13:03,42.805,6.029,0.007,-0.038,-0.008,102.0,105.0,100.0,13.4,1505.3,324.0,-0.7,1.8,2470.334,13.32,0.038,169.6
2020-07-28T09:16:03,42.805,6.029,0.01,-0.022,-0.017,103.0,104.0,101.0,13.3,1505.3,325.9,-0.7,1.9,2470.334,13.32,0.024,155.6
2020-07-28T09:19:03,42.805,6.029,0.014,-0.032,0.0,103.0,104.0,100.0,13.4,1505.3,322.7,-0.7,1.9,2470.322,13.32,0.034,156.4
2020-07-28T09:22:03,42.805,6.029,0.002,-0.038,-0.042,104.0,104.0,101.0,13.4,1505.3,326.5,-0.7,1.8,2470.315,13.32,0.038,177.0
2020-07-28T09:25:03,42.805,6.029,-0.008,-0.027,-0.023,104.0,104.0,101.0,13.4,1505.3,324.7,-0.7,1.8,2470.298,13.32,0.028,196.5
2020-07-28T09:28:03,42.805,6.029,0.024,-0.04,0.018,103.0,105.0,101.0,13.4,1505.3,328.1,-0.7,1.8,2470.303,13.32,0.046,149.0
2020-07-28T09:31:03,42.805,6.029,-0.015,-0.037,-0.055,104.0,104.0,101.0,13.3,1505.3,323.6,-0.7,1.9,2470.336,13.32,0.039,202.1
2020-07-28T09:34:03,42.805,6.029,0.001,-0.043,-0.006,103.0,104.0,100.0,13.4,1505.3,328.4,-0.7,1.8,2470.309,13.32,0.043,178.7
2020-07-28T09:37:02,42.805,6.029,0.011,-0.035,-0.012,103.0,104.0,100.0,13.4,1505.3,326.0,-0.7,1.8,2470.317,13.32,0.036,162.6
2020-07-28T09:40:03,42.805,6.029,0.012,-0.038,-0.021,104.0,104.0,101.0,13.3,1505.3,326.0,-0.7,1.8,2470.33,13.32,0.039,162.5
2020-07-28T09:43:03,42.805,6.029,0.011,-0.036,0.008,102.0,103.0,101.0,13.4,1505.3,326.3,-0.8,1.8,2470.308,13.32,0.037,163.0
2020-07-28T09:46:03,42.805,6.029,0.036,-0.028,0.003,103.0,104.0,101.0,13.4,1505.3,322.7,-0.7,1.9,2470.307,13.32,0.045,127.9
2020-07-28T09:49:03,42.805,6.029,-0.004,-0.012,-0.014,104.0,104.0,100.0,13.4,1505.3,323.4,-0.7,1.8,2470.292,13.32,0.012,198.4
2020-07-28T09:52:03,42.805,6.029,-0.009,-0.04,-0.028,104.0,104.0,101.0,13.4,1505.3,328.1,-0.7,1.9,2470.327,13.32,0.041,192.7
2020-07-28T09:55:03,42.805,6.029,-0.015,-0.035,-0.001,103.0,105.0,101.0,13.3,1505.3,325.4,-0.7,1.8,2470.343,13.32,0.038,203.2
2020-07-28T09:58:03,42.805,6.029,-0.013,-0.021,-0.036,103.0,104.0,100.0,13.4,1505.3,326.6,-0.7,1.9,2470.312,13.32,0.024,211.8
2020-07-28T10:04:02,42.805,6.029,0.013,-0.055,-0.054,104.0,104.0,102.0,13.4,1505.2,324.3,-0.7,1.8,2470.388,13.3,0.056,166.7